Location: Härtsfeldhausen
(48.8248°N, 10.3670°E)
Time: 23:53:41
(UTC+00:00)

Daily predictions for brighter satellites

Satellite Brightness Start Highest point End
(mag) Time Altitude Azimuth Time Altitude Azimuth Time Altitude Azimuth
Cosmos 1515 3.7 19:41:15 10° S 19:44:58 61° E 19:48:42 10° NNE
SPOT 1/Viking Rocket 3.6 19:41:25 10° SSE 19:46:35 78° ENE 19:51:46 10° NNW
Helios 1A Rocket 4.0 19:43:33 10° SE 19:47:04 30° ENE 19:50:36 10° N
Meteor 1-27 Rocket 3.9 19:42:01 10° S 19:47:44 68° E 19:53:36 10° NNE
Cosmos 1633 Rocket 4.1 19:46:32 10° NNW 19:50:44 46° W 19:54:53 10° SSW
Cosmos 2219 3.8 19:46:33 10° NW 19:52:03 55° WSW 19:57:29 10° S
Cosmos 2034 Rocket 4.4 19:46:44 10° SSE 19:52:41 47° E 19:58:44 10° NNE
SJ 16-02 2.2 19:50:41 10° SSE 19:54:30 30° ESE 19:58:21 10° NE
Cosmos 1340 2.6 19:51:36 10° S 19:55:18 68° E 19:59:03 10° NNE
Cosmos 2082 3.8 19:53:18 10° NNW 19:58:58 87° WSW 20:04:35 10° SSE
Meteor 1-11 Rocket 4.3 19:53:54 10° NNW 19:59:51 67° W 20:05:43 10° S
Cosmos 482 Debris 3.6 19:58:55 10° WNW 20:01:32 88° NNE 20:05:31 10° ESE
Cosmos 2263 Rocket 2.5 19:56:35 10° NNW 20:02:06 55° ENE 20:07:29 10° SE
Cosmos 1470 Rocket 4.1 19:57:53 10° NNW 20:02:09 58° W 20:06:23 10° S
Cosmos 1743 2.9 20:01:38 10° NNW 20:05:26 71° W 20:09:10 10° S
Ariane Rocket 3.2 20:01:24 10° S 20:06:28 77° WSW 20:11:35 10° NNW
IRAS Rocket 4.3 20:05:39 10° NNE 20:11:19 90° ESE 20:16:58 10° SSW
SPOT 5 3.5 20:06:31 10° SE 20:11:35 50° ENE 20:16:31 10° N
BREEZE-M DEB (TANK) 1.7 20:09:10 10° W 20:11:50 82° N 20:14:02 10° E
Terra 2.7 20:09:04 11° SE 20:13:14 35° ENE 20:17:33 10° N
Resurs 01 Rocket 2.6 20:11:03 10° S 20:15:17 46° W 20:19:34 10° NNW
Aureole 1 Rocket 2.7 20:14:18 10° SSW 20:17:25 60° WNW 20:20:22 10° NNE
Cosmos 1346 Rocket 4.4 20:15:00 12° SE 20:17:25 20° E 20:20:22 10° NE
Cosmos 1515 Rocket 4.0 20:13:46 10° SSW 20:18:06 64° WNW 20:22:29 10° N
Cosmos 1809 Rocket 4.5 20:11:56 10° N 20:18:07 86° E 20:24:17 10° S
Cosmos 2227 Rocket 3.7 20:14:54 10° NW 20:19:49 31° WSW 20:24:42 10° SSW
Cosmos 921 Rocket 3.3 20:16:41 10° NNW 20:21:12 69° WSW 20:25:37 10° S
Cosmos 1980 Rocket 2.2 20:24:41 10° SSW 20:30:19 85° ESE 20:36:02 10° NNE
Cosmos 1869 Rocket 3.6 20:26:01 10° N 20:30:32 83° E 20:34:33 13° SSE
CARTOSAT-1 3.8 20:26:25 10° S 20:30:41 67° WSW 20:35:00 10° NNW
SL-24 R/B - RUBIN 2 3.8 20:26:39 10° NW 20:31:00 62° NE 20:34:41 15° SE
Cosmos 2228 Rocket 3.2 20:29:13 10° S 20:33:44 63° E 20:38:15 10° NNE
Cosmos 1464 Rocket 4.4 20:28:46 10° SSW 20:34:55 66° WNW 20:41:04 10° N
Cosmos 1378 3.4 20:34:31 15° SSE 20:37:17 47° E 20:40:49 10° NNE
Cosmos 2344 3.5 20:31:12 10° SW 20:38:40 86° SE 20:46:29 10° NE
Cosmos 2322 Rocket 3.4 20:36:17 15° SE 20:39:08 22° E 20:43:22 10° NE
ISS -3.7 20:35:57 10° WNW 20:39:17 65° SSW 20:41:27 20° SE
Cosmos 1777 Rocket 4.0 20:34:25 10° S 20:39:33 62° ESE 20:44:44 10° NNE
Cosmos 2369 4.0 20:34:24 10° SW 20:40:03 74° WNW 20:45:45 10° NNE
Spot 2 Rocket 3.5 20:35:42 14° SSE 20:40:08 88° ENE 20:45:13 10° NNW
Cosmos 1354 Rocket 4.1 20:35:30 10° SSW 20:40:47 85° WNW 20:46:09 10° NNE
Cosmos 773 Rocket 4.2 20:35:42 10° NNW 20:40:54 68° WSW 20:45:19 14° S
SPOT 3 Rocket 4.0 20:36:18 10° S 20:41:23 61° WSW 20:46:30 10° NNW
Cosmos 1844 Rocket 4.0 20:36:34 10° NNW 20:41:27 30° NE 20:46:18 10° ESE
ATLAS 2AS CENTAUR R/B 2.9 20:35:38 10° SSW 20:43:22 71° SE 20:50:53 10° NE
Okean 1 3.6 20:41:05 10° SSW 20:45:04 71° WNW 20:49:06 10° N
Meteor 2-4 Rocket 3.9 20:40:22 12° S 20:45:33 55° E 20:51:03 10° NNE
Cosmos 1092 Rocket 4.0 20:40:36 10° N 20:46:50 83° E 20:52:05 15° S
Meteor 1-19 Rocket 4.2 20:41:46 10° SSW 20:47:12 83° WNW 20:52:39 10° N
Nadezhda 4 Rocket 4.5 20:41:27 10° NNW 20:47:34 60° W 20:53:35 10° S
NOSS 3-4 (A) 4.5 20:42:42 10° WSW 20:48:19 48° NW 20:54:29 10° NE
NOSS 3-4 (C) 4.5 20:42:44 10° WSW 20:48:22 49° NW 20:54:33 10° NE
RESURS DK-1 2.3 20:45:02 10° SSW 20:49:08 80° ESE 20:53:16 10° NNE
Cosmos 1697 Rocket 4.1 20:44:06 10° WSW 20:49:27 42° NW 20:54:49 10° NNE
SL-4 R/B 4.2 20:46:51 10° W 20:49:39 16° SW 20:52:09 11° S
USA 267 4.2 20:47:32 10° E 20:53:43 47° N 20:59:55 10° WNW
Cosmos 1634 Rocket 4.0 20:49:58 13° S 20:55:34 66° E 21:01:42 10° NNE
ARIANE 5 R/B 2.7 20:53:39 20° SSE 20:56:42 70° ENE 21:01:12 10° N
ATLAS CENTAUR R/B 3.5 20:52:55 10° NNW 20:57:06 27° NNE 21:01:11 10° E
Cosmos 1707 Rocket 3.7 20:54:13 18° S 20:57:26 60° E 21:01:47 10° NNE
Cosmos 44 Rocket 3.2 20:53:43 10° NW 20:58:26 75° SW 21:01:28 22° SSE
Cosmos 2227 4.3 20:58:11 10° NNW 21:03:57 81° WSW 21:07:59 21° SSE
Cosmos 1733 4.2 21:01:27 10° N 21:04:53 32° ENE 21:06:32 22° ESE
Cosmos 158 Rocket 4.1 21:00:39 10° NNW 21:05:46 70° WSW 21:09:24 20° S
ATLAS 3B R/B 2.9 21:00:15 10° NW 21:07:37 84° NE 21:13:24 19° SE
NOSS 2-1 (E) 3.1 21:08:10 27° S 21:09:24 41° SE 21:12:28 10° NE
Cosmos 1975 3.1 21:06:53 10° NNW 21:10:55 64° W 21:13:33 20° S
Cosmos 2026 Rocket 4.1 21:05:54 10° NNW 21:12:04 76° W 21:17:00 17° S
USA 81 4.0 21:09:01 17° S 21:13:05 82° E 21:18:23 10° N
ERS-1 Rocket 3.5 21:12:33 16° S 21:16:23 54° W 21:21:21 10° NNW
SL-16 R/B 2.3 21:13:28 15° S 21:18:06 58° ESE 21:23:40 10° NE
Meteor 1-4 Rocket 3.0 21:14:57 10° N 21:18:20 46° ENE 21:19:36 31° SE
CZ-4C R/B 4.0 21:13:04 10° NW 21:19:18 38° NNE 21:26:40 10° E
Cosmos 1538 Rocket 4.1 21:15:54 10° NNW 21:21:09 73° WSW 21:24:18 24° S
CZ-2C R/B 4.1 21:18:28 10° N 21:23:12 66° WNW 21:27:47 11° SSW
GENESIS II 4.0 21:20:46 11° SSW 21:24:29 77° SE 21:28:26 10° NE
Meteor 2-10 4.5 21:19:54 10° N 21:25:02 49° ENE 21:27:49 25° SE
Cosmos 1733 Rocket 3.1 21:20:45 10° NNW 21:25:13 78° W 21:27:44 26° S
Geosat 4.0 21:28:35 26° SSE 21:31:28 90° W 21:36:31 10° NNW
OE (NEXTSAT) 4.3 21:28:16 10° WSW 21:31:30 52° S 21:32:08 43° SE
SAR-Lupe-4 3.5 21:28:15 10° NNE 21:31:51 77° ESE 21:33:22 33° S
EP 1 4.4 21:29:19 14° SW 21:32:02 86° SE 21:34:46 10° NE
SJ 16-02 3.1 21:29:04 10° WSW 21:33:01 32° WNW 21:36:59 10° N
Cosmos 1356 3.5 21:35:10 43° SE 21:35:49 52° E 21:39:03 10° NNE
Cosmos 1908 Rocket 3.9 21:32:35 10° N 21:36:50 51° ENE 21:38:37 31° SE
Cosmos 923 Rocket 4.1 21:33:57 10° NNW 21:39:19 76° ENE 21:42:10 28° SSE
Cosmos 1862 Rocket 3.6 21:37:32 24° SSW 21:40:13 80° W 21:44:44 10° N
Cosmos 2360 Rocket 2.6 21:40:43 28° SSE 21:43:13 44° ESE 21:48:33 10° NE
Cosmos 1726 2.9 21:40:40 10° N 21:44:08 39° ENE 21:45:09 32° ESE
Cosmos 1937 Rocket 4.3 21:42:39 27° SE 21:44:20 34° ESE 21:49:03 10° NE
Cosmos 2263 Rocket 3.6 21:41:04 10° NW 21:45:41 27° WSW 21:49:11 15° SSW
ALOS 2 4.0 21:44:37 19° ESE 21:46:43 28° ENE 21:50:28 10° N
Meteor 1-13 Rocket 4.2 21:44:29 27° S 21:47:34 67° E 21:53:04 10° NNE
Cosmos 2266 Rocket 4.1 21:41:41 10° N 21:47:56 67° ENE 21:51:20 28° SSE
NOSS 2-1 (C) 3.2 21:46:44 11° SW 21:49:46 63° NW 21:53:02 10° NE
Terra 3.1 21:47:57 16° SSW 21:51:00 32° W 21:55:17 10° NNW
Cosmos 1441 Rocket 3.2 21:51:04 32° SSW 21:52:40 71° WNW 21:56:24 10° N
Cosmos 1346 Rocket 4.0 21:50:23 14° SW 21:53:26 39° WNW 21:57:14 10° N
Cosmos 2279 Rocket 4.2 21:53:29 18° SSW 21:58:09 70° W 22:04:24 10° N
USA 215 3.5 21:53:36 10° ENE 21:59:49 44° SE 22:03:42 22° SSW
Cosmos 2112 Rocket 4.1 21:54:32 10° NNW 21:59:54 74° ENE 22:02:27 31° SE
NOSS 2-1 (D) 3.7 21:57:07 10° WSW 22:00:16 49° NW 22:03:29 10° NNE
Cosmos 1680 Rocket 3.5 21:55:38 10° NNW 22:00:58 86° ENE 22:03:26 33° SSE
Cosmos 2278 Rocket 4.2 21:56:44 10° N 22:01:07 22° NE 22:05:30 10° E
Cosmos 990 Rocket 3.9 21:57:54 24° SSW 22:01:11 88° ESE 22:06:28 10° NNE
Cosmos 1842 4.0 22:03:47 33° ESE 22:04:24 35° E 22:07:59 10° NNE
Meteor 1-12 Rocket 4.3 21:59:56 10° NNW 22:05:55 84° W 22:08:54 31° S
Cosmos 1066 Rocket 4.4 22:05:06 23° SSW 22:08:48 75° WNW 22:14:29 10° N
ADEOS Rocket 3.8 22:05:31 20° ESE 22:08:57 39° ENE 22:14:31 10° N
Spot 4 3.9 22:07:13 35° SSE 22:09:14 71° ENE 22:14:02 10° N
Cosmos 1818 3.5 22:03:58 10° NW 22:09:28 89° NE 22:12:08 32° SE
Iridium 4 Rocket 3.2 22:07:11 10° N 22:11:47 83° E 22:13:44 37° S
Cosmos 1898 Rocket 3.5 22:11:50 30° SSW 22:14:31 79° ESE 22:19:52 10° NNE
ISS -1.2 22:13:45 10° WSW 22:14:21 12° WSW 22:14:21 12° WSW
Cosmos 1900 4.4 22:15:19 34° S 22:17:22 62° ESE 22:22:28 10° NE
Okean 1-7 3.0 22:17:26 39° SSW 22:19:02 84° WNW 22:23:26 10° N
Cosmos 2322 Rocket 2.5 22:18:02 15° SW 22:22:39 67° WNW 22:28:16 10° NNE
Cosmos 1844 Rocket 2.9 22:20:13 10° NW 22:25:42 57° WSW 22:27:57 34° S
Okean 3 3.4 22:25:02 45° S 22:26:17 89° E 22:30:34 10° N
Cosmos 2322 4.3 22:25:29 32° SSE 22:27:14 41° ESE 22:32:34 10° NE
Cosmos 2333 Rocket 2.4 22:25:18 35° S 22:27:25 55° ESE 22:32:58 10° NE
H-2A R/B 3.4 22:27:20 10° NNE 22:31:26 66° ESE 22:32:20 49° SSE
Cosmos 1461 3.5 22:27:55 10° NNW 22:31:59 53° NE 22:33:55 29° ESE
BREEZE-M DEB (TANK) 3.9 22:30:18 10° W 22:31:52 23° SW 22:31:52 23° SW
ATLAS 2AS CENTAUR R/B 4.1 22:27:33 10° WSW 22:34:52 43° NNW 22:41:54 10° NE
USA 229 DEB 4.5 22:28:05 10° NW 22:35:11 56° NE 22:42:47 10° ESE
USA 229 4.5 22:28:11 10° NW 22:35:16 56° NE 22:42:51 10° ESE
USA 267 3.3 22:29:47 10° ESE 22:36:21 79° NNE 22:42:55 10° NW
ATLAS CENTAUR R/B 1.7 22:31:31 10° NW 22:36:23 73° SW 22:37:50 44° SSE
Meteor 1-23 Rocket 4.3 22:34:01 32° SSW 22:36:55 85° WNW 22:42:48 10° N
Cosmos 1766 4.2 22:38:47 10° NNW 22:42:27 38° W 22:43:23 33° SW
Cosmos 2219 Rocket 2.3 22:44:47 38° S 22:46:46 59° ESE 22:52:16 10° NE
Cosmos 1844 4.3 22:43:50 10° NW 22:49:22 46° WSW 22:51:27 33° SSW
Cosmos 1703 Rocket 4.4 22:48:15 28° SW 22:50:10 45° WNW 22:54:26 10° N
Cosmos 2221 Rocket 4.4 22:51:06 33° ESE 22:52:05 38° E 22:56:11 10° NNE
Cosmos 372 Rocket 3.9 22:51:17 38° SSW 22:53:20 88° ESE 22:58:33 10° NNE
ATLAS 3B R/B 4.1 22:51:45 10° WNW 22:57:43 27° WSW 23:00:38 21° SW
Cosmos 1707 2.6 23:00:36 62° SSE 23:01:12 80° E 23:05:05 10° NNE
NOSS 3-1 (A) 4.1 22:54:38 10° NW 23:01:59 83° NE 23:08:57 17° SE
SL-16 R/B 3.9 22:57:37 10° WSW 23:02:34 30° NW 23:07:34 10° NNE
Cosmos 1782 Rocket 4.4 22:59:38 10° NNW 23:03:40 38° W 23:04:50 32° SW
ERS-2 2.1 23:02:41 10° N 23:06:19 71° WNW 23:06:52 57° SW
Okean 2 3.5 23:06:39 51° SE 23:07:22 61° E 23:11:26 10° NNE
CZ-4C R/B 2.9 23:01:25 10° NW 23:08:35 83° SW 23:14:17 23° SE
NOSS 3-1 (C) 4.1 23:01:53 10° NW 23:09:14 65° SW 23:14:03 28° SSE
USA 290 2.9 23:10:46 44° E 23:10:46 44° E 23:13:30 10° NE
Cosmos 1238 Rocket 2.7 23:09:06 10° N 23:11:57 49° ENE 23:11:57 49° ENE
Gblst 52 Del rocket 4.3 23:09:24 10° WSW 23:15:45 85° NNW 23:21:27 10° ENE
Cosmos 2237 Rocket 3.4 23:14:56 25° SE 23:16:36 29° ESE 23:21:25 10° NE
KORONAS-FOTON 3.7 23:16:49 63° SSE 23:17:18 75° E 23:21:07 10° NNE
Cosmos 1470 3.5 23:14:54 10° NNW 23:18:30 37° W 23:19:01 35° WSW
Cosmos 1726 4.2 23:16:27 10° NW 23:18:49 16° W 23:19:26 16° W
Cosmos 1300 Rocket 4.1 23:15:41 10° NNW 23:19:52 47° W 23:20:51 39° SW
COSMOS 2428 2.7 23:17:53 38° SSW 23:20:09 75° ESE 23:25:52 10° NNE
NOSS 2-2 (D) 4.3 23:15:21 10° NW 23:20:12 75° NE 23:25:35 16° SE
Cosmos 1745 Rocket 4.2 23:15:37 10° N 23:21:50 64° ENE 23:25:01 29° SSE
PSLV R/B 3.8 23:18:10 10° NNE 23:22:32 63° ESE 23:23:41 45° SSE
Cosmos 2151 Rocket 3.5 23:18:22 10° N 23:22:47 87° E 23:23:57 49° SSE
Resurs 1-4 Rocket 4.4 23:21:13 10° ENE 23:22:54 11° E 23:24:36 10° ESE
ALOS 2 3.5 23:22:00 32° SW 23:22:57 36° W 23:27:01 10° NNW
Cosmos 1242 Rocket 2.6 23:22:20 10° NNW 23:25:54 60° W 23:26:07 59° WSW
USA 305 3.8 23:26:45 31° ESE 23:26:45 31° ESE 23:29:51 10° ENE
Okean 2 Rocket 3.1 23:22:20 10° NNW 23:26:53 76° W 23:28:05 48° S
Cosmos 2360 Rocket 3.4 23:22:24 11° WSW 23:27:18 37° NW 23:32:34 10° NNE
Cosmos 405 Rocket 2.9 23:28:20 49° SE 23:28:46 52° E 23:32:29 10° NNE
Cosmos 1943 Rocket 4.0 23:25:04 10° NNW 23:29:55 28° NE 23:34:45 10° ESE
In-Cosmos 22 4.2 23:29:31 36° SSW 23:31:52 76° WNW 23:37:21 10° N
Cosmos 1437 Rocket 2.9 23:29:05 10° N 23:32:48 60° ENE 23:33:33 48° SE
Nimbus 7 Rocket 4.3 23:27:41 10° NNE 23:33:37 82° ESE 23:36:12 36° S
Cosmos 1908 3.0 23:30:30 10° NNW 23:34:17 80° W 23:34:48 64° SSW
Cosmos 1867 3.5 23:33:43 35° SW 23:36:09 86° SE 23:41:40 10° NE
Cosmos 2298 Rocket 4.3 23:34:33 37° SSE 23:36:18 54° ESE 23:41:28 10° NNE
Meteor 1-21 4.5 23:34:35 33° SSW 23:37:16 66° WNW 23:43:04 10° N
Cosmos 1626 2.0 23:37:36 65° SW 23:38:03 79° W 23:41:45 10° N
GP-B 4.5 23:36:14 10° NNE 23:40:12 31° E 23:42:03 22° SE
USA 215 3.4 23:36:34 10° NE 23:43:07 75° NNW 23:49:39 10° WSW
Cosmos 1953 2.3 23:39:46 10° N 23:43:48 72° E 23:44:46 49° SSE
Cosmos 2278 Rocket 2.1 23:40:16 10° NNW 23:45:59 87° WSW 23:48:51 31° SSE
Cosmos 468 4.5 23:41:59 10° NNW 23:47:11 69° WSW 23:49:03 39° S
Cosmos 1674 3.2 23:50:45 40° WSW 23:51:27 45° WNW 23:55:06 10° N
